Location: ????????
(37.7683°N, 24.0020°E)
Time: 05:43:27
(UTC+00:00)

Daily predictions for brighter satellites

Satellite Brightness Start Highest point End
(mag) Time Altitude Azimuth Time Altitude Azimuth Time Altitude Azimuth
SL-16 R/B 3.5 00:07:07 10° N 00:12:23 37° ENE 00:15:01 24° ESE
CZ-2D R/B 2.5 00:11:56 10° N 00:16:30 60° NNW 00:16:30 60° NNW
USA 229 DEB 4.2 00:17:54 42° ESE 00:18:12 42° ESE 00:24:26 10° NE
USA 229 4.2 00:18:00 41° ESE 00:18:18 41° ESE 00:24:29 10° NE
IRS-1D 4.2 00:13:40 10° NNE 00:18:02 48° ENE 00:18:02 48° ENE
NPP 3.9 00:13:16 10° NNE 00:17:47 64° N 00:17:47 64° N
ADEOS II 2.8 00:15:39 10° NNE 00:20:30 45° E 00:20:30 45° E
Meteor 2-5 Rocket 3.8 00:18:05 10° N 00:23:34 68° ENE 00:23:34 68° ENE
Cosmos 2279 Rocket 3.9 00:24:29 83° NW 00:24:29 83° NW 00:30:32 10° N
CZ-4B R/B 4.0 00:20:11 10° NNE 00:23:55 52° NE 00:23:55 52° NE
Cosmos 2263 Rocket 4.0 00:26:12 19° ESE 00:27:28 20° E 00:31:28 10° NE
NOSS 3-1 (A) 4.3 00:29:29 31° ESE 00:29:40 31° ESE 00:34:44 10° NE
Cosmos 2297 Rocket 3.1 00:30:52 38° NW 00:30:52 38° NW 00:35:38 10° N
Cosmos 2026 Rocket 4.3 00:24:57 10° NNW 00:29:55 50° WNW 00:29:55 50° WNW
Cosmos 2219 4.3 00:32:41 31° NW 00:32:41 31° NW 00:37:15 10° N
Cosmos 923 Rocket 4.3 00:28:52 10° NNW 00:34:10 64° ENE 00:34:25 63° E
Meteor 1-22 Rocket 4.1 00:37:11 76° NNE 00:37:11 76° NNE 00:42:05 10° N
Cosmos 2098 Rocket 4.4 00:37:13 10° N 00:42:15 50° E 00:44:45 32° SE
Cosmos 1626 4.1 00:40:16 10° N 00:42:03 27° N 00:42:03 27° N
Cosmos 2237 Rocket 3.6 00:41:52 10° NW 00:44:32 25° WNW 00:44:32 25° WNW
Cosmos 1470 3.5 00:56:45 51° NNE 00:56:45 51° NNE 00:59:51 10° NNE
SL-16 R/B 3.2 00:59:59 37° W 00:59:59 37° W 01:04:56 10° NNW
COBE Rocket 4.1 01:00:26 55° NW 01:00:26 55° NW 01:04:14 10° NNW
Cosmos 1544 Rocket 3.8 01:00:03 67° E 01:00:03 67° E 01:04:29 10° NNE
Cosmos 1607 4.0 00:54:24 10° NNW 01:00:55 82° ENE 01:07:22 10° SSE
SeaSat 1 4.4 00:58:58 10° ENE 01:02:38 21° ESE 01:04:53 15° SE
USA 215 3.5 00:58:12 10° NE 01:04:36 58° NW 01:06:48 40° W
IRS-P3 4.0 01:08:14 10° N 01:13:36 75° WNW 01:14:30 60° SW
Resurs 1-4 Rocket 3.6 01:10:32 10° NNW 01:14:25 21° WNW 01:14:25 21° WNW
Okean 1-7 Rocket 3.5 01:14:21 10° NNW 01:18:34 68° WNW 01:18:34 68° WNW
Cosmos 2227 Rocket 3.9 01:19:04 18° WNW 01:20:01 19° NW 01:23:59 10° N
Cosmos 2266 Rocket 3.9 01:14:51 10° N 01:21:11 73° W 01:23:43 38° SSW
CZ-3 Stage 3 4.3 01:22:34 39° SW 01:24:09 46° SSW 01:27:49 10° ESE
Cosmos 1655 Rocket 4.2 01:20:46 10° NNW 01:26:43 48° W 01:28:01 42° SW
OAO 3 Rocket 3.8 01:26:54 41° S 01:27:06 42° SSE 01:31:46 10° E
NOSS 2-3 (E) 3.3 01:27:09 69° SW 01:27:38 84° WNW 01:32:20 10° NNE
Cosmos 2112 Rocket 3.9 01:23:08 10° NNW 01:28:17 62° WSW 01:29:34 47° SSW
Cosmos 1937 Rocket 3.7 01:29:31 47° WSW 01:30:38 57° WNW 01:35:53 10° N
Cosmos 2227 4.2 01:30:19 40° SSW 01:32:31 88° ESE 01:38:19 10° NNE
Cosmos 1758 3.8 01:34:06 45° WNW 01:34:06 45° WNW 01:37:45 10° N
USA 267 4.2 01:27:52 10° ESE 01:34:05 49° NE 01:40:21 10° NW
NOSS 3-1 (C) 3.8 01:33:35 35° W 01:35:16 46° NW 01:41:11 10° NNE
MSX 4.4 01:30:03 10° NNE 01:35:42 55° E 01:40:07 17° S
Cosmos 1898 Rocket 4.3 01:35:45 33° W 01:36:38 35° WNW 01:41:26 10° N
ERS-2 4.2 01:35:15 10° SE 01:38:21 27° ENE 01:41:29 10° NNE
Meteor 2-14 Rocket 4.5 01:33:10 10° N 01:39:15 78° E 01:45:18 10° S
SJ 16-02 3.3 01:40:06 16° WNW 01:40:06 16° WNW 01:42:48 10° NNW
ARIANE 5 R/B 2.7 01:35:47 10° N 01:40:55 59° WNW 01:42:41 39° SW
Cosmos 1726 2.0 01:41:51 64° WSW 01:42:05 67° W 01:45:45 10° N
CZ-2C R/B 3.0 01:40:19 10° NNE 01:44:09 64° ESE 01:45:38 34° S
Cosmos 1680 Rocket 4.0 01:40:55 10° NW 01:45:38 35° W 01:45:53 35° WSW
ATLAS 3B CENTAUR R/B 3.5 01:40:21 25° WSW 01:46:09 42° SSW 01:51:44 10° SE
Meteor 1-16 Rocket 4.2 01:44:18 20° S 01:47:59 74° E 01:53:26 10° NNE
Cosmos 1340 Rocket 3.9 01:48:30 28° WNW 01:48:30 28° WNW 01:51:49 10° NNW
CZ-4C R/B 3.9 01:46:10 12° SSE 01:48:59 45° ENE 01:52:07 10° N
Cosmos 1809 Rocket 4.4 01:43:51 10° NNW 01:49:55 69° W 01:54:58 15° S
IDEFIX/ARIANE 42P 2.5 01:45:11 10° N 01:50:23 75° WNW 01:53:09 28° SSW
Cosmos 372 Rocket 3.9 01:47:55 32° SSW 01:50:23 83° WNW 01:55:39 10° NNE
SL-08 R/B 3.7 01:49:37 34° SW 01:51:11 46° W 01:55:58 10° NNW
NOSS 2-3 (D) 3.8 01:50:17 39° WSW 01:51:31 53° NW 01:56:09 10° NNE
Cosmos 1908 3.7 01:50:46 21° SSE 01:53:10 59° E 01:57:02 10° NNE
Landsat 5 4.0 01:50:31 10° SSE 01:54:16 54° ENE 01:58:10 10° N
Cosmos 1953 2.5 01:55:00 41° SW 01:55:58 52° W 01:59:54 10° N
ATLAS CENTAUR R/B 2.8 01:53:21 16° S 01:56:05 33° ESE 01:59:45 10° NE
SL-16 R/B 3.0 01:51:32 10° NW 01:56:18 28° WSW 01:56:46 28° WSW
Cosmos 1626 Rocket 3.5 01:52:11 10° NNW 01:56:26 58° W 01:58:28 28° SSW
SL-4 R/B 1.4 01:54:33 10° NW 01:57:57 87° SW 02:01:21 10° SE
CZ-2C R/B 3.6 01:54:32 10° NNE 01:58:47 37° E 02:03:04 10° SSE
ADEOS II 3.5 01:56:10 10° NNW 02:00:01 21° WNW 02:01:25 19° W
CZ-2D R/B 3.9 01:59:23 10° N 02:03:09 40° WNW 02:04:18 32° WSW
Cosmos 1125 Rocket 4.0 02:03:07 12° S 02:07:55 59° ESE 02:13:04 10° NNE
Atlas Centaur 2 4.1 02:03:34 17° SSW 02:07:56 29° SSE 02:14:48 10° E
USA 229 DEB 4.5 02:05:21 20° W 02:09:09 36° NW 02:15:24 10° NNE
USA 229 4.5 02:05:27 20° W 02:09:13 37° NW 02:15:28 10° NNE
Cosmos 2228 3.5 02:05:48 10° S 02:10:04 62° E 02:14:25 10° NNE
Cosmos 2263 Rocket 2.5 02:07:55 25° SW 02:10:57 48° WNW 02:16:21 10° N
BREEZE-M DEB (TANK) 3.2 02:13:17 28° SW 02:14:51 78° SE 02:23:35 10° NE
Cosmos 1758 Rocket 3.6 02:10:41 10° N 02:15:01 77° E 02:19:19 10° S
Aureole 3 4.4 02:10:29 10° S 02:15:17 70° E 02:21:28 10° NNE
Cosmos 1328 3.9 02:15:26 10° N 02:19:26 76° E 02:23:25 10° S
NOSS 3-1 (A) 4.1 02:16:55 19° WSW 02:20:18 36° NW 02:26:01 10° NNE
Cosmos 1417 Rocket 4.5 02:14:05 10° S 02:20:25 84° W 02:26:44 10° N
H-2A R/B 2.1 02:23:07 10° S 02:27:08 50° W 02:31:08 10° NNW
Cosmos 1703 3.2 02:23:24 10° NNW 02:27:22 69° W 02:31:16 10° S
Cosmos 2285 Rocket 4.1 02:22:12 14° SSW 02:27:36 64° WNW 02:33:52 10° NNE
Cosmos 2298 Rocket 4.3 02:24:41 17° SW 02:28:36 51° WNW 02:33:48 10° N
Cosmos 1300 3.5 02:28:20 10° S 02:32:02 52° E 02:35:46 10° NNE
Cosmos 1603 3.8 02:30:41 10° NNW 02:36:13 52° WSW 02:41:42 10° S
Cosmos 1825 Rocket 3.4 02:32:47 10° N 02:37:07 76° W 02:41:24 10° S
Cosmos 1844 Rocket 3.4 02:31:43 10° S 02:37:08 55° ESE 02:42:33 10° NNE
SeaSat 1 2.9 02:35:34 10° NNE 02:40:17 46° WNW 02:44:41 12° SW
Cosmos 1953 Rocket 3.7 02:39:20 10° N 02:43:50 83° E 02:48:18 10° S
PAYLOAD A 4.2 02:39:08 10° N 02:44:24 61° WNW 02:49:29 10° SSW
NOSS 8 (H) 4.4 02:41:29 10° SSW 02:44:59 71° ESE 02:48:01 10° NE
Meteor 1-31 Rocket 4.2 02:42:41 10° NNE 02:46:19 38° E 02:49:53 10° SSE
Delta 2 Rocket 3.5 02:44:13 14° WSW 02:47:17 51° SSE 02:51:20 10° E
Cosmos 1484 Rocket 3.8 02:47:03 10° NNE 02:50:38 46° E 02:54:13 10° S
Cosmos 1553 Rocket 4.4 02:46:45 10° SSW 02:52:24 40° WNW 02:58:07 10° N
FALCON 9 DEB 3.3 02:49:09 10° WNW 02:52:32 50° SW 02:55:52 10° SSE
Cosmos 1386 Rocket 4.4 02:47:48 10° N 02:53:48 73° W 02:59:46 10° S
SL-08 ROCKET BODY 4.4 02:48:04 10° NNW 02:54:03 64° W 02:59:55 10° S
Cosmos 1048 Rocket 4.0 02:51:36 10° NNW 02:56:42 64° WSW 03:01:48 10° S
Cosmos 1606 Rocket 4.3 02:56:20 10° SW 03:00:24 34° WNW 03:04:30 10° NNW
Hubble Space Telescope 3.3 03:01:44 10° SSE 03:02:13 10° SSE 03:02:41 10° SSE
Cosmos 1943 3.7 02:57:09 10° NW 03:02:15 37° WSW 03:07:21 10° S
OAO 2 Rocket 4.5 02:59:01 10° SW 03:03:44 34° SSE 03:08:23 10° E
Cosmos 1745 Rocket 4.2 03:00:40 10° NNW 03:06:45 53° W 03:12:44 10° SSW
OAO 3 Rocket 3.4 03:05:29 10° W 03:10:24 64° S 03:15:16 10° E
